Time,TemperatureF,DewpointF,PressureIn,WindDirection,WindDirectionDegrees,WindSpeedMPH,WindSpeedGustMPH,Humidity,HourlyPrecipIn,Conditions,Clouds,dailyrainin,SoftwareType,DateUTC
2013-04-24 00:01:00,56.3,46.7,30.05,SW,228,0.0,0.0,70,0.00,,SKC,0.00,VWS V14.01,2013-04-24 04:01:00,
2013-04-24 00:06:00,56.0,46.4,30.05,SW,228,0.0,0.0,70,0.00,,SKC,0.00,VWS V14.01,2013-04-24 04:06:00,
2013-04-24 00:11:00,55.9,46.7,30.05,SW,228,0.0,0.0,71,0.00,,SKC,0.00,VWS V14.01,2013-04-24 04:11:00,
2013-04-24 00:16:00,55.6,46.4,30.04,SW,228,0.0,0.0,71,0.00,,SKC,0.00,VWS V14.01,2013-04-24 04:16:00,
2013-04-24 00:21:00,55.3,46.4,30.04,SW,228,0.0,0.0,72,0.00,,SKC,0.00,VWS V14.01,2013-04-24 04:21:00,
2013-04-24 00:26:00,55.1,46.6,30.04,SW,228,0.0,0.0,73,0.00,,SKC,0.00,VWS V14.01,2013-04-24 04:26:00,
2013-04-24 00:31:00,54.8,46.3,30.04,SW,228,0.0,0.0,73,0.00,,SKC,0.00,VWS V14.01,2013-04-24 04:31:00,
2013-04-24 00:36:00,54.7,46.2,30.04,SW,228,0.0,0.0,73,0.00,,SKC,0.00,VWS V14.01,2013-04-24 04:36:00,
2013-04-24 00:41:00,54.7,46.2,30.04,SW,228,0.0,0.0,73,0.00,,SKC,0.00,VWS V14.01,2013-04-24 04:41:00,
2013-04-24 00:46:00,54.8,46.3,30.04,SW,228,0.0,3.0,73,0.00,,SKC,0.00,VWS V14.01,2013-04-24 04:46:00,
2013-04-24 00:51:00,55.1,46.6,30.04,SW,228,0.0,1.0,73,0.00,,SKC,0.00,VWS V14.01,2013-04-24 04:51:00,
2013-04-24 00:56:00,55.3,46.4,30.04,SW,229,3.0,4.0,72,0.00,,SKC,0.00,VWS V14.01,2013-04-24 04:56:00,
2013-04-24 01:01:00,55.6,46.7,30.04,SW,229,0.0,0.0,72,0.00,,SKC,0.00,VWS V14.01,2013-04-24 05:01:00,
2013-04-24 01:06:00,55.4,46.5,30.04,SW,234,3.0,5.0,72,0.00,,SKC,0.00,VWS V14.01,2013-04-24 05:06:00,
2013-04-24 01:11:00,55.6,46.4,30.04,SW,236,0.0,0.0,71,0.00,,SKC,0.00,VWS V14.01,2013-04-24 05:11:00,
2013-04-24 01:16:00,55.6,46.7,30.02,SW,236,4.0,4.0,72,0.00,,SKC,0.00,VWS V14.01,2013-04-24 05:16:00,
2013-04-24 01:21:00,55.4,46.5,30.02,WSW,245,1.0,3.0,72,0.00,,SKC,0.00,VWS V14.01,2013-04-24 05:21:00,
2013-04-24 01:26:00,55.1,46.2,30.02,WSW,249,0.0,3.0,72,0.00,,SKC,0.00,VWS V14.01,2013-04-24 05:26:00,
2013-04-24 01:31:00,55.0,46.2,30.02,WSW,250,0.0,0.0,72,0.00,,SKC,0.00,VWS V14.01,2013-04-24 05:31:00,
2013-04-24 01:36:00,54.8,46.3,30.02,WSW,250,1.0,3.0,73,0.00,,SKC,0.00,VWS V14.01,2013-04-24 05:36:00,
2013-04-24 01:41:00,54.8,46.3,30.02,WSW,252,4.0,4.0,73,0.00,,SKC,0.00,VWS V14.01,2013-04-24 05:41:00,
2013-04-24 01:46:00,54.8,46.3,30.01,WSW,257,0.0,2.0,73,0.00,,SKC,0.00,VWS V14.01,2013-04-24 05:46:00,
2013-04-24 01:51:00,54.8,46.3,30.01,West,260,4.0,4.0,73,0.00,,SKC,0.00,VWS V14.01,2013-04-24 05:51:00,
2013-04-24 01:56:00,55.0,46.5,30.01,West,261,0.0,1.0,73,0.00,,SKC,0.00,VWS V14.01,2013-04-24 05:56:00,
2013-04-24 02:01:00,55.0,46.9,30.00,West,262,0.0,3.0,74,0.00,,SKC,0.00,VWS V14.01,2013-04-24 06:01:00,
2013-04-24 02:06:00,55.1,47.0,30.00,West,264,0.0,0.0,74,0.00,,SKC,0.00,VWS V14.01,2013-04-24 06:06:00,
2013-04-24 02:11:00,55.3,47.2,30.00,West,266,3.0,4.0,74,0.00,,SKC,0.00,VWS V14.01,2013-04-24 06:11:00,
2013-04-24 02:16:00,55.3,47.2,30.01,West,269,0.0,3.0,74,0.00,,SKC,0.00,VWS V14.01,2013-04-24 06:16:00,
2013-04-24 02:21:00,55.3,47.5,30.01,West,271,6.0,6.0,75,0.00,,SKC,0.00,VWS V14.01,2013-04-24 06:21:00,
2013-04-24 02:26:00,55.3,47.2,30.01,WSW,252,0.0,0.0,74,0.00,,SKC,0.00,VWS V14.01,2013-04-24 06:26:00,
2013-04-24 02:31:00,55.1,47.3,30.01,West,267,0.0,6.0,75,0.00,,SKC,0.00,VWS V14.01,2013-04-24 06:31:00,
2013-04-24 02:36:00,55.1,47.3,30.01,West,266,0.0,4.0,75,0.00,,SKC,0.00,VWS V14.01,2013-04-24 06:36:00,
2013-04-24 02:41:00,55.0,47.2,30.01,West,265,4.0,5.0,75,0.00,,SKC,0.00,VWS V14.01,2013-04-24 06:41:00,
2013-04-24 02:46:00,54.8,47.0,30.00,West,270,0.0,3.0,75,0.00,,SKC,0.00,VWS V14.01,2013-04-24 06:46:00,
2013-04-24 02:51:00,54.8,47.0,30.00,West,270,3.0,3.0,75,0.00,,SKC,0.00,VWS V14.01,2013-04-24 06:51:00,
2013-04-24 02:56:00,54.7,47.3,30.00,West,274,0.0,4.0,76,0.00,,SKC,0.00,VWS V14.01,2013-04-24 06:56:00,
2013-04-24 03:01:00,54.5,47.1,30.00,West,267,0.0,3.0,76,0.00,,SKC,0.00,VWS V14.01,2013-04-24 07:01:00,
2013-04-24 03:06:00,54.4,45.9,30.00,West,268,0.0,3.0,73,0.00,,SKC,0.00,VWS V14.01,2013-04-24 07:06:00,
2013-04-24 03:11:00,54.2,47.5,30.00,West,266,0.0,3.0,78,0.00,,SKC,0.00,VWS V14.01,2013-04-24 07:11:00,